{"data":{"norad_id":61912,"epoch":"2026-05-24T20:54:57.699360Z","epoch_age_seconds":89441,"freshness":"FRESH","line1":"1 61912U 24207A   26144.87150115  .00004560  00000+0  17510-3 0  9990","line2":"2 61912  42.9965 211.4581 0000305 308.6104  51.4721 15.27582815 86961","mean_motion":15.27582815,"eccentricity":3.05e-5,"inclination_deg":42.9965,"raan_deg":211.4581,"arg_perigee_deg":308.6104,"mean_anomaly_deg":51.4721,"bstar":0.0001751,"rev_number":8696,"period_min":94.266575000714,"perigee_km":482.83140101106,"apogee_km":483.24993284875,"semimajor_km":6861.1776669299,"source":"CELESTRAK","updated_at":"2026-05-25T13:38:19.479728Z"}}